Lid_Strength_Index
10 9 8 9 9 9 10 10 12 11 11 9 8 7 7 6 6 6 6 5 5 5 4 3 3 3 3 4 3 2 2 2 2 2 1 2 2 1 1 1 1 1 1 1
11 9 9 10 9 9 9 9 10 10 10 7 6 6 6 6 6 6 6 5 5 4 4 4 3 3 3 3 2 2 2 2 1 1 1 3 2 1 1 1 1 1 1 1
14 10 10 12 10 9 9 9 10 12 10 7 7 7 6 6 6 6 6 5 5 4 4 4 3 3 3 3 3 3 2 2 2 2 2 2 2 1 2 2 2 2 3 4
15 12 17 11 8 8 9 9 9 9 8 7 7 6 5 5 6 5 5 5 4 4 4 3 3 3 3 2 2 2 3 2 2 3 3 3 2 2 2 3 4 4 4 3
16 15 13 11 10 10 11 11 8 9 8 7 6 6 6 5 4 5 5 4 4 3 3 3 3 2 2 2 3 3 4 3 3 2 2 3 3 3 3 5 4 4 3 3
14 17 18 13 8 7 7 14 7 7 8 8 8 11 9 5 4 4 4 3 4 3 3 3 3 3 3 3 3 4 3 3 3 2 3 4 5 4 4 4 3 2 2 2
15 16 14 9 8 7 15 13 7 6 6 7 9 8 6 4 4 4 4 3 3 3 3 3 3 4 4 3 3 2 3 3 3 3 3 4 3 4 4 3 3 3 2 1
14 16 18 7 8 11 9 7 6 6 6 7 6 5 5 5 5 4 4 3 3 3 3 3 3 3 3 4 3 3 3 3 3 4 2 2 4 3 3 2 2 2 3 3
13 13 8 7 8 6 6 6 6 5 5 5 6 5 5 5 5 4 4 4 3 3 3 3 2 3 4 4 4 3 3 4 3 3 3 3 2 2 3 2 2 2 2 3
11 9 8 7 6 5 5 5 4 4 4 4 5 5 5 5 4 4 5 5 4 5 5 4 4 2 3 3 3 3 4 4 4 3 4 2 2 2 3 4 3 2 3 3
10 9 7 6 5 5 4 5 4 4 4 4 4 4 4 5 5 5 5 4 4 4 4 4 3 3 3 2 2 3 3 3 4 4 3 3 2 3 3 2 2 4 4 3
12 8 8 8 5 4 5 5 4 4 4 4 4 4 4 4 5 5 6 5 5 4 4 4 4 4 3 2 2 3 4 4 4 3 3 3 3 2 4 4 6 7 7 6
7 5 5 4 4 4 5 5 4 4 4 4 4 4 4 5 5 5 5 4 5 4 4 4 4 4 2 1 2 3 4 4 3 4 4 4 3 4 4 3 5 6 7 6
4 5 6 5 6 5 4 3 3 3 3 4 3 3 4 5 5 4 4 4 4 4 4 4 4 3 2 1 2 3 4 5 4 3 3 4 4 4 4 5 5 5 6 5
5 5 6 6 5 4 4 4 4 4 4 4 3 3 3 4 4 4 4 3 3 3 3 2 2 2 1 1 3 3 3 3 4 4 3 4 4 5 5 6 6 5 4 4
4 4 4 5 4 4 4 4 5 4 4 4 4 3 3 3 4 3 3 2 3 4 3 2 2 2 1 3 2 1 1 4 4 3 3 4 5 5 6 6 6 5 7 6
6 6 5 5 5 5 5 4 4 4 4 4 4 3 3 3 3 3 3 3 2 3 2 3 3 3 2 2 2 1 2 2 4 3 5 6 5 5 6 6 7 6 6 6
4 4 4 4 4 4 4 3 3 4 4 3 3 3 3 3 4 4 3 3 3 3 3 4 4 3 2 1 2 3 2 3 4 4 5 4 5 5 6 6 6 6 5 5
3 4 3 3 4 4 4 4 4 3 3 3 3 4 4 4 4 4 4 4 4 3 3 2 2 2 2 2 3 4 3 3 4 4 3 5 5 5 6 6 6 5 4 3
4 4 3 3 3 3 4 3 3 3 3 4 4 4 4 4 3 3 2 3 3 3 3 3 2 2 1 1 4 4 3 3 2 3 3 3 3 4 5 6 5 5 3 3
4 3 3 3 3 3 3 3 3 4 4 4 5 5 5 4 3 2 3 4 3 3 3 3 2 3 2 6 5 3 1 2 2 2 2 3 4 3 2 3 4 3 4 2
3 4 3 3 3 3 3 3 3 4 4 4 4 4 4 4 3 3 2 3 2 5 3 2 3 9 8 8 1 1 1 1 2 3 3 4 4 5 5 4 5 4 4 4
3 3 3 3 4 4 3 3 3 4 4 4 4 5 5 5 4 4 4 3 2 4 4 3 9 10 10 2 1 2 3 4 5 4 5 6 6 6 7 7 6 5 5 5
3 3 3 3 3 4 5 4 3 3 3 3 4 3 4 4 4 3 4 5 7 5 3 4 5 8 9 2 3 5 4 4 5 6 6 8 6 6 7 7 7 6 6 5
3 3 3 3 4 4 3 4 3 3 3 4 4 4 4 3 4 2 2 2 5 3 2 8 9 9 4 4 4 4 5 5 5 5 6 6 7 7 7 7 7 7 7 6
4 4 3 3 4 4 4 3 5 4 4 4 3 3 2 2 3 3 3 4 2 4 3 5 5 5 4 5 5 5 5 5 5 6 6 6 7 7 7 7 7 6 7 7
4 6 3 4 4 3 3 4 4 4 4 3 3 3 3 4 4 4 5 3 3 4 6 6 5 5 4 4 5 5 5 6 7 6 6 6 6 7 7 7 7 7 7 8